Flag for Qatar Weather past 2 weeks in Al-Jamiliyah, Qatar

Now
72 °F

Passing clouds.


Feels Like: 71 °F
Forecast: 70 / 80 °F
Wind: 3 mph from Northeast

Location: Al Udeid

Current Time: Mar 27, 2015 at 8:33:00 AM

Latest Report: Mar 27, 2015 at 7:58 AM


Visibility: N/A

Pressure: 30.03 "Hg

Humidity: 83%

Dew point: 66 °F

Location of Al-JamiliyahLocation

Historic Weather in Al-Jamiliyah — Graph

°F

Al-Jamiliyah temperature yesterday

Maximum temperature yesterday: 88 °F (at 12:45 PM)
Minimum temperature yesterday: 67 °F (at 1:58 AM)
Average temperature yesterday: 77 °F

Past Weeks' High & Low Weather Summary

 TemperatureHumidityPressure
High94 °F (Mar 21, 1:58 PM)100% (Mar 23, 1:58 AM)30.12 "Hg (Mar 23, 1:58 AM)
Low56 °F (Mar 13, 4:58 AM)22% (Mar 21, 1:58 PM)29.78 "Hg (Mar 22, 2:58 AM)
Average74 °F64%29.95 "Hg
* Reported Mar 12 6:58 AM — Mar 27 6:58 AM, Al-Jamiliyah, Weather by CustomWeather, © 2015

Note: Actual official high and low records may vary slightly from our data, if they occured in-between our weather recording intervals... More about our weather records

Advertising

Al-Jamiliyah weather history for previous 24 hours

 ConditionsComfort  
Time TempWeatherWind HumidityBarometerVisibility
6:58 AM
Fri, Mar 27
71 °FPartly cloudy.8 mph82%30.01 "HgN/A
5:58 AM70 °FPartly cloudy.6 mph88%30.02 "HgN/A
4:58 AM71 °FSprinkles. Mostly cloudy.8 mph85%29.98 "HgN/A
3:58 AM72 °FMostly cloudy.8 mph78%29.96 "HgN/A
2:58 AM72 °FSprinkles. Partly cloudy.2 mph75%29.95 "Hg5 mi
1:58 AM72 °FPassing clouds.2 mph72%29.94 "HgN/A
12:58 AM72 °FScattered clouds.7 mph72%29.97 "HgN/A
11:58 PM
Thu, Mar 26
73 °FSunny.9 mph71%30.00 "HgN/A
10:58 PM74 °FBroken clouds.12 mph59%30.02 "HgN/A
9:58 PM76 °FBroken clouds.2 mph50%30.00 "HgN/A
8:58 PM77 °FScattered clouds.8 mph45%29.99 "HgN/A
7:58 PM78 °FPartly sunny.6 mph46%29.99 "HgN/A
6:58 PM78 °FPartly sunny.5 mph40%29.99 "HgN/A
5:58 PM78 °FBroken clouds.5 mph42%29.97 "HgN/A
4:58 PM80 °FPartly sunny.14 mph39%29.96 "HgN/A
3:58 PM81 °FScattered clouds.18 mph36%29.98 "HgN/A
2:58 PM84 °FPartly sunny.16 mph39%29.96 "Hg6 mi
1:58 PM88 °FBroken clouds.15 mph31%29.96 "HgN/A
12:58 PM87 °FPartly cloudy.9 mph31%29.99 "HgN/A
12:45 PM88 °FOvercast.7 mph29%30.00 "HgN/A
11:58 AM86 °FPartly cloudy.7 mph30%30.00 "Hg6 mi
10:58 AM85 °FPartly cloudy.3 mph27%30.02 "Hg5 mi
9:58 AM83 °FPartly cloudy.No wind31%30.00 "HgN/A
8:58 AM78 °FPassing clouds.5 mph50%29.99 "HgN/A
Weather by CustomWeather, © 2015

See weather overviewHow to use our weather pages